Total_Precipitation_Accumulation
0.00 0.00 0.00 0.01 0.04 0.10 0.22 0.26 0.31 0.44 0.49 0.43 0.45 0.51 0.59 0.62 0.76 1.42 0.89 0.38 0.23 0.12 0.09 0.09 0.10 0.12 0.15 0.16 0.21 0.22 0.22 0.22 0.20 0.18 0.18 0.18 0.20 0.20 0.19 0.24 0.38 0.43 0.41 0.35 0.33 0.34 0.33 0.29 0.25
0.01 0.01 0.02 0.03 0.06 0.17 0.25 0.28 0.36 0.46 0.43 0.36 0.41 0.47 0.44 0.42 0.39 0.43 0.50 0.33 0.23 0.14 0.11 0.08 0.09 0.10 0.12 0.12 0.15 0.20 0.22 0.23 0.21 0.18 0.18 0.18 0.20 0.22 0.24 0.27 0.36 0.48 0.53 0.51 0.43 0.38 0.35 0.31 0.26
0.01 0.02 0.03 0.02 0.07 0.20 0.27 0.27 0.34 0.40 0.35 0.39 0.44 0.49 0.52 0.46 0.40 0.42 0.42 0.26 0.25 0.20 0.14 0.12 0.10 0.10 0.10 0.11 0.14 0.20 0.27 0.32 0.29 0.26 0.24 0.21 0.20 0.23 0.27 0.32 0.37 0.45 0.51 0.52 0.47 0.42 0.39 0.34 0.28
0.01 0.02 0.02 0.03 0.09 0.18 0.27 0.32 0.43 0.49 0.39 0.40 0.39 0.53 0.59 0.50 0.50 0.48 0.43 0.35 0.27 0.26 0.23 0.18 0.14 0.13 0.13 0.14 0.15 0.20 0.35 0.37 0.32 0.31 0.29 0.27 0.27 0.26 0.31 0.40 0.44 0.44 0.46 0.49 0.52 0.50 0.41 0.33 0.27
0.02 0.02 0.02 0.04 0.09 0.17 0.31 0.40 0.55 0.56 0.41 0.36 0.40 0.63 0.78 0.71 0.65 0.63 0.53 0.45 0.36 0.32 0.34 0.25 0.21 0.21 0.21 0.19 0.19 0.24 0.33 0.36 0.38 0.41 0.38 0.34 0.32 0.33 0.39 0.47 0.51 0.51 0.54 0.54 0.53 0.48 0.39 0.31 0.30
0.02 0.02 0.03 0.06 0.11 0.21 0.27 0.40 0.45 0.50 0.44 0.39 0.52 0.89 1.20 1.20 1.10 0.97 0.86 0.60 0.48 0.39 0.45 0.39 0.31 0.28 0.28 0.27 0.26 0.31 0.38 0.44 0.47 0.46 0.40 0.37 0.36 0.38 0.43 0.48 0.50 0.54 0.54 0.49 0.43 0.39 0.34 0.35 0.34
0.01 0.02 0.03 0.07 0.15 0.22 0.27 0.42 0.49 0.54 0.50 0.51 0.74 0.96 1.23 1.38 1.41 1.33 1.16 0.89 0.82 0.72 0.75 0.66 0.49 0.42 0.40 0.44 0.45 0.41 0.41 0.45 0.50 0.51 0.44 0.38 0.38 0.38 0.40 0.43 0.46 0.47 0.43 0.40 0.37 0.35 0.32 0.31 0.28
0.01 0.01 0.03 0.10 0.19 0.25 0.35 0.51 0.49 0.50 0.55 0.65 0.90 1.10 1.42 1.42 1.23 1.37 1.35 1.19 1.18 1.21 1.17 0.83 0.63 0.62 0.68 0.69 0.62 0.55 0.51 0.51 0.51 0.50 0.51 0.46 0.42 0.42 0.45 0.43 0.45 0.45 0.45 0.43 0.39 0.38 0.39 0.37 0.34
0.01 0.01 0.04 0.13 0.23 0.28 0.29 0.46 0.45 0.38 0.43 0.62 0.89 1.00 1.17 1.13 1.10 1.37 1.47 1.59 1.67 1.48 1.27 1.11 0.91 0.86 0.86 0.80 0.68 0.68 0.65 0.62 0.63 0.61 0.57 0.56 0.56 0.65 0.67 0.57 0.62 0.59 0.58 0.53 0.52 0.52 0.49 0.45 0.40
0.01 0.02 0.05 0.11 0.16 0.23 0.29 0.41 0.37 0.41 0.44 0.57 0.71 0.94 1.15 1.09 1.27 1.43 1.56 1.86 1.77 1.70 1.51 1.40 1.29 1.12 1.04 0.88 0.90 0.90 0.85 0.84 0.79 0.88 0.83 0.89 1.06 1.15 1.06 1.14 1.05 0.91 0.81 0.75 0.75 0.76 0.66 0.55 0.49
0.03 0.03 0.07 0.11 0.12 0.19 0.30 0.38 0.37 0.48 0.64 0.91 1.00 1.04 1.11 1.11 1.32 1.56 1.82 2.15 2.15 1.94 1.64 1.59 1.57 1.53 1.48 1.45 1.30 1.19 1.20 1.25 1.18 1.31 1.24 1.33 1.43 1.38 1.42 1.53 1.37 1.23 1.10 1.04 1.11 0.98 0.77 0.73 0.80
0.06 0.07 0.12 0.12 0.15 0.24 0.39 0.47 0.62 0.69 0.81 1.03 1.11 1.07 1.17 1.24 1.38 1.59 1.88 2.17 2.37 2.28 2.07 2.06 1.84 1.78 1.85 2.04 1.93 1.56 1.47 1.48 1.43 1.64 1.59 1.73 1.86 1.85 1.95 1.99 1.78 1.72 1.68 1.67 1.53 1.41 1.22 1.11 1.06
0.07 0.09 0.12 0.10 0.19 0.31 0.46 0.50 0.60 0.60 0.50 0.76 0.95 1.06 1.21 1.18 1.35 1.56 1.89 2.42 2.71 2.70 2.53 2.48 2.34 2.23 2.28 2.52 2.54 2.01 1.88 2.00 2.19 2.27 2.09 2.08 2.10 2.16 2.35 2.30 2.20 2.12 2.21 2.13 1.96 1.75 1.76 1.70 1.51
0.04 0.05 0.08 0.12 0.17 0.25 0.38 0.38 0.49 0.66 0.59 0.69 0.81 0.97 1.18 1.41 1.67 1.95 2.23 2.65 2.96 3.07 2.93 2.81 2.71 2.66 2.62 2.72 2.75 2.71 2.45 2.49 2.65 2.73 2.69 2.52 2.52 2.69 2.86 2.82 2.65 2.44 2.44 2.38 2.28 2.21 2.26 2.17 2.08
0.05 0.05 0.09 0.14 0.20 0.23 0.27 0.43 0.57 0.69 0.71 0.76 0.82 0.95 1.19 1.50 1.75 2.03 2.52 2.80 2.89 2.92 2.88 2.96 2.88 2.94 2.97 3.02 2.93 3.04 3.06 3.09 3.19 3.21 3.03 2.82 2.81 3.15 3.24 3.27 3.01 2.78 2.75 2.86 2.80 2.71 2.67 2.41 2.30
0.07 0.08 0.12 0.17 0.20 0.27 0.25 0.49 0.67 0.55 0.57 0.68 0.84 1.00 1.12 1.31 1.69 2.04 2.44 2.69 2.85 3.21 3.24 3.23 3.21 3.21 3.23 3.29 3.27 3.28 3.30 3.58 3.60 3.63 3.54 3.23 3.12 3.26 3.36 3.39 3.27 3.13 3.06 3.29 3.40 3.32 3.21 3.03 2.93
0.10 0.12 0.14 0.19 0.20 0.25 0.26 0.47 0.63 0.57 0.55 0.68 1.03 1.29 1.24 1.35 1.76 2.17 2.52 2.81 2.98 3.17 3.35 3.29 3.31 3.48 3.48 3.54 3.43 3.57 3.75 3.76 3.65 3.66 3.73 3.66 3.55 3.61 3.66 3.60 3.60 3.62 3.68 3.67 3.47 3.56 3.41 3.40 3.28
0.14 0.14 0.16 0.20 0.23 0.22 0.27 0.46 0.66 0.72 0.84 0.91 1.08 1.26 1.35 1.41 1.60 1.96 2.42 2.89 3.08 3.12 3.06 3.19 3.24 3.39 3.47 3.72 3.73 3.78 3.93 4.08 4.21 4.34 4.36 4.12 4.06 4.00 4.21 4.19 4.10 4.11 4.07 3.88 3.81 3.78 3.59 3.42 3.28
0.12 0.16 0.18 0.21 0.23 0.28 0.34 0.46 0.70 0.83 1.00 1.00 1.02 1.04 1.10 1.43 1.64 1.95 2.29 2.62 3.17 3.22 3.06 3.16 3.37 3.55 3.65 3.94 4.04 4.26 4.60 4.82 4.97 5.00 4.88 4.83 4.69 4.76 4.78 4.60 4.38 4.25 4.24 4.16 4.12 3.94 3.72 3.47 3.32
0.15 0.23 0.27 0.24 0.23 0.31 0.44 0.58 0.77 0.90 0.98 0.95 1.03 1.17 1.28 1.67 2.00 2.13 2.31 2.72 3.21 3.39 3.41 3.45 3.65 3.96 4.18 4.42 4.87 5.17 5.43 5.68 5.88 5.89 5.46 5.25 5.13 4.99 4.90 4.92 4.84 4.63 4.44 4.25 4.07 3.99 3.83 3.50 3.37
0.11 0.17 0.21 0.24 0.23 0.30 0.49 0.76 0.93 1.01 1.12 1.25 1.45 1.64 1.74 1.89 2.19 2.27 2.37 2.73 3.05 3.24 3.38 3.51 3.74 4.19 4.74 5.13 5.59 6.00 6.16 6.20 6.07 5.79 5.65 5.50 5.36 5.22 5.07 4.91 4.69 4.52 4.39 4.23 4.02 3.84 3.74 3.52 3.39
0.10 0.12 0.18 0.18 0.21 0.32 0.45 0.84 1.18 1.26 1.37 1.65 1.86 1.83 1.87 2.01 2.20 2.35 2.51 2.74 3.01 3.23 3.38 3.70 4.17 4.80 5.37 5.85 6.38 6.86 6.98 6.82 6.52 6.08 5.65 5.40 5.16 4.85 4.61 4.48 4.36 4.16 3.86 3.63 3.47 3.39 3.25 3.13 2.99
0.10 0.09 0.15 0.16 0.15 0.28 0.42 0.71 1.43 1.61 1.70 1.94 2.16 1.94 1.85 1.83 1.88 2.13 2.29 2.48 2.85 3.04 3.27 3.64 4.18 4.88 5.60 6.43 7.12 7.53 7.45 7.11 6.70 6.02 5.45 4.99 4.58 4.23 3.98 3.84 3.66 3.43 3.06 2.70 2.57 2.65 2.74 2.75 2.67
0.09 0.09 0.12 0.15 0.18 0.31 0.34 0.61 1.34 1.80 1.99 2.10 2.04 1.86 1.77 1.64 1.61 1.69 1.78 2.04 2.37 2.68 2.99 3.42 4.03 4.75 5.41 6.06 6.60 6.83 6.73 6.52 6.01 5.32 4.69 4.30 3.97 3.62 3.27 2.96 2.67 2.44 2.27 2.06 2.01 2.05 2.14 2.32 2.43
0.09 0.11 0.29 0.43 0.48 0.48 0.38 0.65 1.31 1.70 1.84 1.77 1.71 1.73 1.59 1.55 1.52 1.49 1.51 1.74 2.07 2.28 2.68 3.11 3.55 4.19 4.63 4.96 5.38 5.57 5.58 5.35 5.06 4.59 4.13 3.69 3.21 2.86 2.57 2.29 2.15 2.01 1.90 1.83 1.79 1.76 1.73 1.83 1.98
0.09 0.10 0.33 0.57 0.56 0.58 0.60 0.99 1.54 1.61 1.58 1.49 1.43 1.46 1.47 1.43 1.42 1.46 1.54 1.70 1.95 2.10 2.29 2.52 2.83 3.19 3.38 3.43 3.67 3.91 3.93 3.88 3.76 3.47 3.16 2.87 2.52 2.15 1.89 1.68 1.56 1.54 1.56 1.49 1.52 1.54 1.54 1.55 1.61
0.07 0.08 0.15 0.31 0.36 0.64 0.96 1.41 1.86 1.74 1.68 1.60 1.56 1.41 1.33 1.29 1.31 1.43 1.49 1.49 1.55 1.64 1.73 1.82 2.00 2.17 2.25 2.34 2.40 2.55 2.59 2.57 2.48 2.32 2.09 1.90 1.75 1.53 1.37 1.26 1.24 1.21 1.21 1.23 1.22 1.22 1.27 1.35 1.40
0.07 0.12 0.18 0.33 0.61 0.86 1.18 1.76 2.34 2.27 1.92 1.63 1.45 1.23 1.11 1.14 1.22 1.31 1.38 1.35 1.35 1.35 1.42 1.49 1.56 1.63 1.68 1.74 1.69 1.70 1.75 1.75 1.69 1.56 1.49 1.39 1.27 1.17 1.12 1.07 1.01 0.94 0.91 0.90 0.91 0.94 0.99 1.06 1.15
0.13 0.17 0.23 0.35 0.44 0.83 1.33 2.06 2.25 2.43 2.31 1.89 1.56 1.36 1.22 1.14 1.12 1.20 1.20 1.18 1.16 1.16 1.19 1.26 1.30 1.29 1.30 1.29 1.25 1.24 1.21 1.22 1.25 1.24 1.20 1.11 1.00 0.87 0.81 0.76 0.72 0.69 0.71 0.74 0.78 0.81 0.85 0.89 0.96
0.15 0.19 0.28 0.56 0.64 0.66 1.25 2.24 2.22 2.47 2.55 2.25 1.93 1.73 1.61 1.33 1.22 1.23 1.15 1.09 1.03 1.03 1.04 1.07 1.08 1.08 1.13 1.06 0.97 0.97 0.94 0.92 0.95 0.97 0.90 0.85 0.81 0.71 0.62 0.56 0.55 0.55 0.57 0.59 0.62 0.66 0.70 0.79 0.84